This demonstration page uses our WeatherBlox Daily Observations layout. Learn more.

Left ArrowRight Arrow

31.31129, -92.44514

Hourly Observations for December 28, 2015

Temp ( °F °C ) Dew Point ( °F °C ) Humidity (%) Winds ( mph kmh ) Pressure ( in mb ) Visibility ( mi km ) Precip ( " mm )
12:00 am 00:00 Cloudy with Light Rain 76 24.4 70 21.1 82 82 SSE 31 50 29.47 998 10 16 0.00 0.03
12:07 am 00:07 Windy with Storms Likely 76 24.4 70 21.1 82 82 SSE 30 48 29.47 998 9 14 0.00 0.03
12:21 am 00:21 Cloudy with Strong Thunderstorms 74 23.3 71 21.7 91 91 S 35 56 29.50 999 2 2 0.16 4.06
12:27 am 00:27 Cloudy with Nearby Thunderstorms 73 22.8 72 22.2 96 96 SSW 25 41 29.50 999 1 2 0.26 6.60
12:34 am 00:34 Cloudy with Nearby Thunderstorms 73 22.8 70 21.1 90 90 SSW 20 31 29.50 999 3 5 0.26 6.60
12:44 am 00:44 Cloudy with Light Rain 71 21.7 68 20 90 90 SW 24 39 29.53 1000 9 14 0.27 6.86
12:53 am 00:53 Cloudy with Light Rain 70 21.1 66 18.9 87 87 SW 20 31 29.53 1000 9 14 0.27 6.86
1:16 am 01:16 Cloudy with Light Rain 66 18.9 63 17.2 90 90 SW 17 28 29.53 1000 10 16 0.00 0.03
1:23 am 01:23 Cloudy 66 18.9 62 16.7 87 87 WSW 25 41 29.56 1001 10 16 0.00 0.03
1:30 am 01:30 Cloudy with Light Rain 64 17.8 60 15.6 87 87 WSW 22 35 29.56 1001 10 16 0.00 0.03
1:42 am 01:42 Cloudy with Light Rain 62 16.7 59 15 90 90 SW 24 39 29.59 1002 10 16 0.00 0.03
1:53 am 01:53 Cloudy with Light Rain 60 15.6 57 13.9 90 90 WSW 17 28 29.60 1002 10 16 0.00 0.03
2:01 am 02:01 Cloudy with Light Rain 60 15.6 55 12.8 84 84 WSW 17 28 29.59 1002 10 16 0.00 0.03
2:53 am 02:53 Cloudy 58 14.4 53 11.7 84 84 WSW 12 19 29.60 1002 10 16 0.00 0.03
3:53 am 03:53 Cloudy 57 13.9 51 10.6 81 81 SW 12 19 29.62 1003 10 16 0.00 0.00
4:53 am 04:53 Cloudy 54 12.2 46 7.8 75 75 SW 17 28 29.64 1004 10 16 0.00 0.00
5:14 am 05:14 Cloudy 54 12.2 48 8.9 80 80 SSW 12 19 29.65 1004 10 16 0.00 0.00
5:29 am 05:29 Cloudy 53 11.7 44 6.7 72 72 SW 13 20 29.65 1004 10 16 0.00 0.00
5:53 am 05:53 Cloudy with Light Rain 52 11.1 45 7.2 77 77 SSW 14 22 29.65 1004 10 16 0.00 0.03
6:07 am 06:07 Cloudy with Light Rain 51 10.6 44 6.7 77 77 SSW 15 24 29.65 1004 10 16 0.00 0.03
6:53 am 06:53 Cloudy 49 9.4 45 7.2 86 86 SW 13 20 29.71 1006 10 16 0.02 0.51
7:46 am 07:46 Mostly Cloudy 47 8.3 39 3.9 74 74 WSW 23 37 29.71 1006 10 16 0.00 0.00
7:53 am 07:53 Mostly Cloudy 46 7.8 38 3.3 73 73 SW 20 31 29.73 1007 10 16 0.00 0.00
8:17 am 08:17 Mostly Cloudy 46 7.8 38 3.3 73 73 SSW 17 28 29.74 1007 10 16 0.00 0.00
8:53 am 08:53 Partly Cloudy 45 7.2 38 3.3 77 77 WSW 16 26 29.78 1008 10 16 0.00 0.00
9:53 am 09:53 Mostly Sunny 45 7.2 35 1.7 68 68 SW 17 28 29.80 1009 10 16 0.00 0.00
10:53 am 10:53 Sunny 48 8.9 37 2.8 66 66 SW 16 26 29.82 1010 10 16 0.00 0.00
11:53 am 11:53 Partly Cloudy 50 10 39 3.9 66 66 WSW 14 22 29.81 1010 10 16 0.00 0.00
12:53 pm 12:53 Sunny 51 10.6 39 3.9 64 64 W 14 22 29.80 1009 10 16 0.00 0.00
1:53 pm 13:53 Mostly Sunny 52 11.1 39 3.9 61 61 W 12 19 29.80 1009 10 16 0.00 0.00
2:53 pm 14:53 Partly Cloudy 51 10.6 39 3.9 64 64 W 13 20 29.82 1010 10 16 0.00 0.00
3:53 pm 15:53 Partly Cloudy 51 10.6 40 4.4 66 66 W 12 19 29.83 1010 10 16 0.00 0.00
4:53 pm 16:53 Cloudy 49 9.4 39 3.9 69 69 W 16 26 29.87 1012 10 16 0.00 0.00
5:53 pm 17:53 Cloudy 48 8.9 39 3.9 71 71 W 10 17 29.90 1013 10 16 0.00 0.00
6:29 pm 18:29 Cloudy 48 8.9 39 3.9 71 71 W 9 15 29.91 1013 10 16 0.00 0.00
6:53 pm 18:53 Cloudy 48 8.9 39 3.9 71 71 W 10 17 29.92 1013 10 16 0.00 0.00
7:53 pm 19:53 Cloudy 47 8.3 38 3.3 71 71 WNW 15 24 29.94 1014 10 16 0.00 0.00
8:53 pm 20:53 Cloudy 46 7.8 39 3.9 77 77 W 10 17 29.97 1015 10 16 0.00 0.00
9:53 pm 21:53 Cloudy 45 7.2 38 3.3 77 77 NW 12 19 29.99 1016 10 16 0.00 0.00
10:53 pm 22:53 Cloudy 45 7.2 37 2.8 74 74 W 10 17 30.00 1016 10 16 0.00 0.00
11:53 pm 23:53 Cloudy 44 6.7 37 2.8 76 76 W 10 17 30.01 1016 10 16 0.00 0.00

Powered by AerisWeather